Regional Weather Roundup
Issued by NWS

Home | Current Version | Previous Version | Graphics & Text | Print | Product List | Glossary On
Versions: 1 2 3 4 5 6 7 8 9 10 11 12 13 14 15 16 17 18 19 20 21 22 23 24 25 26 27 28 29 30 31 32 33 34 35 36 37 38 39 40 41 42 43 44 45 46 47 48 49 50
000
ASUS44 KMEG 091300
RWRTN
TENNESSEE HOURLY STATE WEATHER ROUNDUP
NATIONAL WEATHER SERVICE MEMPHIS TN
700 AM CST FRI DEC 09 2016

TNZ002-004-019-021-049-052-054-088>092-091400-
WEST TENNESSEE

CITY           SKY/WX    TMP DP  RH WIND       PRES   REMARKS
MEMPHIS INTL   PTCLDY    23  15  71 N5        30.64S WCI  17
NWS MEMPHIS      N/A     21 N/A N/A MISG        N/A
JACKSON        CLEAR     22  16  78 N6        30.63S WCI  14
DYERSBURG      PTCLDY    21  14  73 N3        30.64S
UNION CITY     CLEAR     18  12  79 NW5       30.62S WCI  11
PARIS          CLEAR     16  10  79 CALM      30.62R
LEXINGTON      CLEAR     19  12  73 NW6       30.60R WCI  11
$$

TNZ008-025-027-028-033-062-065-066-091400-
NORTH MIDDLE TENNESSEE

CITY           SKY/WX    TMP DP  RH WIND       PRES   REMARKS
NASHVILLE      CLOUDY    26  14  60 N8        30.59R WCI  18
CLARKSVILLE    CLOUDY    21  15  78 W5        30.60R WCI  15
SMYRNA         CLOUDY    26  17  68 N10       30.59R WCI  16
CROSSVILLE     CLOUDY    21  13  71 N7        30.45R WCI  12
$$

TNZ061-075-076-078-094-096-097-091400-
SOUTH MIDDLE TENNESSEE

CITY           SKY/WX    TMP DP  RH WIND       PRES   REMARKS
TULLAHOMA      CLOUDY    21  14  73 N10       30.52R WCI  10
WINCHESTER     CLOUDY    21  16  79 N7        30.54R WCI  13
MCMINNVILLE    CLOUDY    25  16  68 N6          N/A  WCI  18
COLUMBIA       CLEAR     19  18  93 CALM      30.56R
SHELBYVILLE    CLOUDY    25  19  80 N6        30.56R WCI  18
$$

TNZ017-018-042-046-047-091400-
NORTHEAST TENNESSEE

CITY           SKY/WX    TMP DP  RH WIND       PRES   REMARKS
TRI CITIES     CLOUDY    26  15  63 N7        30.42R WCI  18
$$

TNZ012-013-036-069-073-074-091400-
CENTRAL EAST TENNESSEE

CITY           SKY/WX    TMP DP  RH WIND       PRES   REMARKS
KNOXVILLE      PTCLDY    25  15  66 N5        30.49R WCI  19
OAK RIDGE      CLOUDY    27  14  58 CALM      30.52R
GATLINBURG     CLOUDY    25  16  68 CALM      30.49R
$$

TNZ083-085-099-091400-
SOUTHEAST TENNESSEE

CITY           SKY/WX    TMP DP  RH WIND       PRES   REMARKS
CHATTANOOGA    PTCLDY    25  15  66 N10       30.52R WCI  15
$$

SKY/WX REPORTED AS FAIR MEANS FEW OR NO CLOUDS BELOW
12 THOUSAND FEET.




USA.gov is the U.S. government's official web portal to all federal, state and local government web resources and services.